DW3320 Weather Reports


time (UTC)temp
C
wind
direction
speed
KPH
gust
KPH
rain 1hr
cm
rain 24hr
cm
rain mn
cm
humidity
%
barometer
mb
20260504023053 8 313 0.0 3.2 0.00 0.00 0.00 81 1017.3
20260504021548 8 0 0.0 1.6 0.00 0.00 0.00 80 1017.3
20260504020047 8 0 0.0 0.0 0.00 0.00 0.00 79 1017.2
20260504014554 9 0 0.0 0.0 0.00 0.00 0.00 78 1017.1
20260504013048 9 0 0.0 0.0 0.00 0.00 0.00 70 1017.1
20260504011549 10 0 0.0 0.0 0.00 0.00 0.00 71 1017.0
20260504010104 11 0 0.0 0.0 0.00 0.00 0.00 74 1016.8
20260504004549 11 0 0.0 0.0 0.00 0.00 0.00 70 1016.6
20260504003044 12 0 0.0 0.0 0.00 0.00 0.00 64 1016.4
20260504001553 13 0 0.0 0.0 0.00 0.00 0.00 62 1016.1
20260504000047 14 0 0.0 0.0 0.00 0.00 0.00 48 1016.0
20260503234546 16 0 0.0 3.2 0.00 0.00 0.00 49 1015.9
20260503233048 17 0 0.0 3.2 0.00 0.00 0.00 36 1015.8
20260503231549 17 290 1.6 8.0 0.00 0.00 0.00 34 1015.7
20260503230049 17 270 1.6 8.0 0.00 0.00 0.00 34 1015.9
20260503224545 16 326 6.4 17.7 0.00 0.00 0.00 34 1015.8
20260503223045 16 331 8.0 14.5 0.00 0.00 0.00 35 1015.8
20260503221550 16 302 4.8 16.1 0.00 0.00 0.00 33 1015.9
20260503214545 16 322 11.3 24.1 0.00 0.00 0.00 33 1015.7
20260503213049 16 336 8.0 20.9 0.00 0.00 0.00 35 1015.7
20260503211548 16 300 11.3 20.9 0.00 0.00 0.00 37 1015.6
20260503210054 16 308 12.9 24.1 0.00 0.00 0.00 35 1015.5
20260503204601 16 6 8.0 17.7 0.00 0.00 0.00 34 1015.4
20260503203054 15 328 12.9 17.7 0.00 0.00 0.00 36 1015.5
20260503201542 15 306 12.9 24.1 0.00 0.00 0.00 44 1015.6
20260503200045 15 65 11.3 22.5 0.00 0.00 0.00 35 1015.8
20260503194603 15 348 14.5 30.6 0.00 0.00 0.00 37 1016.1
20260503193051 15 303 12.9 25.7 0.00 0.00 0.00 36 1016.1
20260503191544 15 316 9.7 30.6 0.00 0.00 0.00 40 1016.3
20260503190046 14 297 16.1 30.6 0.00 0.00 0.00 38 1016.4
20260503184551 14 264 6.4 22.5 0.00 0.00 0.00 42 1016.5
20260503183052 13 336 16.1 37.0 0.00 0.00 0.00 38 1016.8
20260503181546 13 288 12.9 20.9 0.00 0.00 0.00 40 1016.8
20260503180056 13 334 17.7 27.4 0.00 0.00 0.00 38 1017.0
20260503174542 13 278 6.4 25.7 0.00 0.00 0.00 42 1017.1
20260503173136 12 302 12.9 24.1 0.00 0.00 0.00 45 1017.3
20260503171548 12 331 12.9 25.7 0.00 0.00 0.00 45 1017.3
20260503081557 10 354 11.3 22.5 0.00 0.00 0.00 61 1013.7
20260503071551 11 2 11.3 22.5 0.00 0.00 0.00 62 1013.3
20260503054545 9 14 1.6 4.8 0.00 0.00 0.00 77 1012.8
20260503053049 9 3 3.2 6.4 0.00 0.00 0.00 77 1012.9
20260503051551 9 330 3.2 6.4 0.00 0.00 0.00 77 1013.1
20260503050051 9 6 3.2 6.4 0.00 0.00 0.00 78 1013.0
20260503044548 9 13 3.2 4.8 0.00 0.00 0.00 79 1013.0
20260503043046 8 331 1.6 4.8 0.00 0.00 0.00 77 1013.2
20260503041546 9 18 0.0 3.2 0.00 0.00 0.00 79 1013.1
20260503040048 9 348 1.6 3.2 0.00 0.00 0.00 77 1013.0
20260503034550 9 346 1.6 4.8 0.00 0.00 0.00 77 1012.9
20260503033048 10 11 1.6 4.8 0.00 0.00 0.00 75 1012.8
20260503031555 10 328 1.6 3.2 0.00 0.00 0.00 76 1012.8
20260503030049 10 0 0.0 4.8 0.00 0.00 0.00 75 1013.0
20260503024548 10 324 3.2 3.2 0.00 0.00 0.00 76 1012.8